Regional Weather Roundup
Issued by NWS

Home | Current Version | Previous Version | Graphics & Text | Print | Product List | Glossary On
Versions: 1 2 3 4 5 6 7 8 9 10 11 12 13 14 15 16 17 18 19 20 21 22 23 24 25 26 27 28 29 30 31 32 33 34 35 36 37 38 39 40 41 42 43 44 45 46 47 48 49 50
000
ASUS43 KLMK 220810
RWRKY
KENTUCKY REGIONAL WEATHER ROUNDUP
NATIONAL WEATHER SERVICE LOUISVILLE KY
400 AM EDT FRI SEP 22 2017

NOTE "FAIR" INDICATES FEW OR NO CLOUDS BELOW 12,000 FEET
WITH NO SIGNIFICANT WEATHER AND/OR OBSTRUCTIONS TO VISIBILITY.

KYZ001>023-026-027-061>063-070>075-220900-
WESTERN AND SOUTH CENTRAL KENTUCKY

CITY           SKY/WX    TMP DP  RH WIND       PRES   REMARKS
PADUCAH        CLEAR     70  67  90 CALM      30.03S
HENDERSON      CLEAR     68  67  96 CALM      30.05S FOG
OWENSBORO      CLEAR     72  69  90 CALM      30.05S
HOPKINSVILLE   CLEAR     67  67  99 CALM      30.04S FOG
BOWLING GREEN  CLEAR     70  70 100 CALM      30.05F FOG
GLASGOW        CLEAR    N/A N/A N/A CALM      30.06S FOG
$$

KYZ024-025-028>034-038-045-046-053-220900-
NORTH CENTRAL KENTUCKY

CITY           SKY/WX    TMP DP  RH WIND       PRES   REMARKS
LOUISVILLE/SDF PTCLDY    74  70  87 CALM      30.05F
LOUISVILLE/LOU CLEAR     71  70  96 CALM      30.07F
FORT KNOX      PTCLDY    68  68 100 CALM      30.05F
$$

KYZ035>037-039>044-047>052-055>060-089>105-220900-
NORTHEAST KENTUCKY

CITY           SKY/WX    TMP DP  RH WIND       PRES   REMARKS
LEXINGTON      CLEAR     68  65  90 CALM      30.09S
COVINGTON      PTCLDY    71  71 100 CALM      30.08F
FRANKFORT      PTCLDY    67  64  90 CALM      30.07F
$$

KYZ054-064>069-076>088-106>120-220900-
SOUTHEAST KENTUCKY

CITY           SKY/WX    TMP DP  RH WIND       PRES   REMARKS
JACKSON        CLEAR     68  66  93 CALM      30.10S
LONDON         CLEAR     64  62  93 CALM      30.08F
SOMERSET       CLEAR     63  63 100 CALM      30.09S
MIDDLESBORO    FOG       64  64 100 CALM      30.10F VSB 1/4
MONTICELLO     PTSUNNY   61  61 100 NE9       30.10S FOG
$$





USA.gov is the U.S. government's official web portal to all federal, state and local government web resources and services.